EW4956 Weather Reports


Display with metric or nautical units.
time (UTC)temp
F
wind
direction
speed
MPH
gust
MPH
rain 1hr
in
rain 24hr
in
rain mn
in
humidity
%
barometer
mb
20260505021531 56 27 0.0 0.0 0.00 0.00 0.00 43 999.1
20260505020030 57 27 0.0 0.0 0.00 0.00 0.00 44 999.0
20260505014529 58 27 0.0 0.0 0.00 0.00 0.00 43 998.9
20260505013029 58 27 0.0 0.0 0.00 0.00 0.00 44 999.1
20260505011546 58 27 0.0 0.0 0.00 0.00 0.00 44 999.2
20260505010028 58 27 0.0 0.0 0.00 0.00 0.00 45 999.3
20260505004528 59 27 0.0 0.0 0.00 0.00 0.00 48 999.4
20260505003027 58 27 0.0 0.0 0.00 0.00 0.00 47 999.6
20260505001527 58 27 0.0 0.0 0.00 0.00 0.00 50 999.8
20260505000036 58 27 0.0 0.0 0.00 0.00 0.00 53 999.8
20260504234529 57 27 0.0 1.0 0.00 0.00 0.00 57 1000.2
20260504233025 55 28 0.0 5.0 0.00 0.00 0.00 62 1000.8
20260504231522 55 29 0.0 8.0 0.00 0.00 0.00 58 1000.9
20260504230021 57 165 0.0 7.0 0.00 0.00 0.00 52 1000.8
20260504224519 59 184 0.0 1.0 0.00 0.00 0.00 45 1000.4
20260504223023 60 184 0.0 1.0 0.00 0.00 0.00 41 1000.0
20260504221516 63 184 0.0 0.0 0.00 0.00 0.00 34 999.4
20260504220016 65 184 0.0 0.0 0.00 0.00 0.00 33 999.2
20260504214515 65 184 0.0 0.0 0.00 0.00 0.00 31 999.0
20260504213015 65 184 0.0 1.0 0.00 0.00 0.00 30 999.1
20260504211514 66 184 0.0 4.0 0.00 0.00 0.00 28 999.2
20260504210018 69 185 0.0 1.0 0.00 0.00 0.00 25 999.3
20260504204512 69 185 0.0 1.0 0.00 0.00 0.00 27 999.4
20260504203011 69 185 0.0 3.0 0.00 0.00 0.00 27 999.5
20260504201510 67 186 0.0 1.0 0.00 0.00 0.00 28 999.6
20260504200012 70 187 0.0 2.0 0.00 0.00 0.00 26 999.7
20260504194508 69 190 0.0 1.0 0.00 0.00 0.00 26 999.8
20260504193006 69 192 0.0 2.0 0.00 0.00 0.00 28 1000.0
20260504191507 70 190 0.0 2.0 0.00 0.00 0.00 26 1000.0
20260504190002 69 192 0.0 6.0 0.00 0.00 0.00 27 1000.3
20260504184557 68 192 0.0 2.0 0.00 0.00 0.00 28 1000.4
20260504183054 67 198 0.0 2.0 0.00 0.00 0.00 26 1000.6
20260504181557 67 202 0.0 1.0 0.00 0.00 0.00 29 1000.7
20260504180047 66 204 0.0 1.0 0.00 0.00 0.00 30 1000.8
20260504174543 66 206 0.0 3.0 0.00 0.00 0.00 31 1001.1
20260504173039 66 207 0.0 7.0 0.00 0.00 0.00 29 1001.1
20260504171545 65 208 0.0 1.0 0.00 0.00 0.00 30 1001.2
20260504081514 53 213 0.0 0.0 0.00 0.00 0.00 29 1001.9
20260504044618 55 194 0.0 0.0 0.00 0.00 0.00 30 1003.2
20260504043055 55 194 0.0 0.0 0.00 0.00 0.00 28 1003.1
20260504041554 56 194 0.0 0.0 0.00 0.00 0.00 29 1003.1
20260504040110 57 194 0.0 0.0 0.00 0.00 0.00 27 1003.0
20260504034605 56 194 0.0 0.0 0.00 0.00 0.00 27 1002.9
20260504033054 57 194 0.0 0.0 0.00 0.00 0.00 28 1003.0
20260504031553 58 194 0.0 0.0 0.00 0.00 0.00 25 1002.9
20260504030053 59 194 0.0 0.0 0.00 0.00 0.00 25 1003.0
20260504024552 59 194 0.0 0.0 0.00 0.00 0.00 24 1002.9
20260504023052 61 194 0.0 0.0 0.00 0.00 0.00 26 1002.8